GW0881 Weather Reports


Display with metric or nautical units.
time (UTC)temp
F
wind
direction
speed
MPH
gust
MPH
rain 1hr
in
rain 24hr
in
rain mn
in
humidity
%
barometer
mb
20260904144054 70 269 1.0 1.0 0.00 0.00 0.00 99 1010.0
20260904143550 69 0 2.0 2.0 0.00 0.00 0.00 99 1010.2
20260904143046 69 217 1.0 1.0 0.00 0.00 0.00 99 1010.0
20260904142542 69 204 0.0 0.0 0.00 0.00 0.00 99 1010.1
20260904142037 69 203 0.0 0.0 0.00 0.00 0.00 99 1010.2
20260904141532 69 57 1.0 1.0 0.00 0.00 0.00 99 1010.1
20260904141028 69 307 2.0 2.0 0.00 0.00 0.00 99 1009.8
20260904140528 69 204 0.0 0.0 0.00 0.00 0.00 99 1009.5
20260904140022 69 215 0.0 0.0 0.00 0.00 0.00 99 1009.6
20260904135521 69 203 0.0 0.0 0.00 0.00 0.00 99 1009.6
20260904135018 68 209 0.0 0.0 0.00 0.00 0.00 99 1009.8
20260904134513 68 231 0.0 1.0 0.00 0.00 0.00 99 1009.9
20260904134007 68 150 1.0 1.0 0.00 0.00 0.00 99 1009.6
20260904133502 68 261 1.0 2.0 0.00 0.00 0.00 99 1009.8
20260904132958 68 147 1.0 1.0 0.00 0.00 0.00 99 1009.8
20260904132457 68 39 3.0 3.0 0.00 0.00 0.00 99 1009.6
20260904131952 68 147 1.0 1.0 0.00 0.00 0.00 99 1009.6
20260904131447 68 66 2.0 2.0 0.00 0.00 0.00 99 1009.5
20260904130943 68 208 0.0 0.0 0.00 0.00 0.00 99 1009.6
20260904130442 68 166 1.0 1.0 0.00 0.00 0.00 99 1009.9
20260904125937 68 357 1.0 2.0 0.00 0.00 0.00 99 1009.6
20260904125433 69 271 1.0 2.0 0.00 0.00 0.00 99 1009.6
20260904124933 69 234 1.0 2.0 0.00 0.00 0.00 99 1009.8
20260904124429 69 54 2.0 2.0 0.00 0.00 0.00 99 1009.4
20260904123925 69 38 2.0 2.0 0.00 0.00 0.00 99 1009.3
20260904123424 69 264 1.0 2.0 0.00 0.00 0.00 99 1009.4
20260904122920 69 344 1.0 2.0 0.00 0.00 0.00 99 1009.1
20260904122419 70 215 1.0 1.0 0.00 0.00 0.00 99 1009.0
20260904121914 70 190 1.0 1.0 0.00 0.00 0.00 99 1009.1
20260904121411 70 268 1.0 2.0 0.00 0.00 0.00 99 1009.1
20260904120907 70 64 1.0 2.0 0.00 0.00 0.00 99 1008.9
20260904120403 70 267 1.0 1.0 0.00 0.00 0.00 99 1009.0
20260904115858 70 60 2.0 2.0 0.00 0.00 0.00 99 1009.0
20260904115352 70 149 1.0 1.0 0.00 0.00 0.00 99 1008.8
20260904114847 71 245 1.0 1.0 0.00 0.00 0.00 99 1008.9
20260904114342 71 307 2.0 2.0 0.00 0.00 0.00 99 1008.8
20260904113837 71 181 0.0 1.0 0.00 0.00 0.00 99 1008.8
20260904113337 71 150 1.0 1.0 0.00 0.00 0.00 99 1008.4
20260904112832 71 212 0.0 0.0 0.00 0.00 0.00 99 1008.4
20260904112327 71 211 0.0 0.0 0.00 0.00 0.00 99 1008.5
20260904111822 71 66 1.0 2.0 0.00 0.00 0.00 99 1008.6
20260904111318 71 243 1.0 1.0 0.00 0.00 0.00 99 1008.6
20260904110814 71 222 0.0 1.0 0.00 0.00 0.00 99 1008.4
20260904110313 71 112 1.0 2.0 0.00 0.00 0.00 99 1008.6
20260904105807 71 200 0.0 1.0 0.00 0.00 0.00 99 1008.5
20260904105305 71 146 0.0 1.0 0.00 0.00 0.00 99 1008.6
20260904104757 71 200 3.0 3.0 0.00 0.00 0.00 99 1008.4
20260904104253 71 99 1.0 2.0 0.00 0.00 0.00 99 1008.4
20260904103750 71 220 1.0 2.0 0.00 0.00 0.00 99 1008.5
20260904103249 70 35 1.0 2.0 0.00 0.00 0.00 99 1008.6
20260904102745 70 220 0.0 1.0 0.00 0.00 0.00 99 1008.4
20260904102241 70 32 1.0 1.0 0.00 0.00 0.00 99 1008.5
20260904101737 70 215 0.0 0.0 0.00 0.00 0.00 99 1008.2
20260904101232 70 232 1.0 1.0 0.00 0.00 0.00 98 1008.3
20260904100728 70 213 0.0 0.0 0.00 0.00 0.00 99 1008.0
20260904100224 70 220 0.0 0.0 0.00 0.00 0.00 99 1008.4
20260904095723 71 173 0.0 1.0 0.00 0.00 0.00 98 1008.3
20260904095218 70 210 1.0 1.0 0.00 0.00 0.00 99 1008.1
20260904094714 70 207 0.0 0.0 0.00 0.00 0.00 98 1008.7
20260904094214 70 208 0.0 0.0 0.00 0.00 0.00 98 1008.3
20260904093710 70 219 0.0 0.0 0.00 0.00 0.00 98 1008.2
20260904093210 71 219 0.0 0.0 0.00 0.00 0.00 98 1008.3
20260904092706 70 207 0.0 0.0 0.00 0.00 0.00 98 1008.4
20260904092202 70 222 0.0 0.0 0.00 0.00 0.00 98 1008.4
20260904091657 70 201 0.0 0.0 0.00 0.00 0.00 98 1008.5
20260904091152 70 206 0.0 1.0 0.00 0.00 0.00 98 1008.5
20260904090647 70 331 2.0 2.0 0.00 0.00 0.00 98 1008.5
20260904090143 70 210 1.0 1.0 0.00 0.00 0.00 98 1008.3
20260904085638 68 317 3.0 3.0 0.00 0.00 0.00 98 1008.5
20260904085138 69 173 0.0 1.0 0.00 0.00 0.00 98 1008.2
20260904084633 69 206 0.0 0.0 0.00 0.00 0.00 97 1007.9
20260904084129 69 206 0.0 0.0 0.00 0.00 0.00 97 1007.9
20260904083626 69 206 0.0 1.0 0.00 0.00 0.00 97 1007.8
20260904083121 69 207 0.0 0.0 0.00 0.00 0.00 97 1007.8
20260904082616 69 207 0.0 0.0 0.00 0.00 0.00 97 1007.7
20260904082112 69 207 0.0 0.0 0.00 0.00 0.00 97 1007.4
20260904081607 69 207 0.0 0.0 0.00 0.00 0.00 97 1007.6
20260904081102 70 207 0.0 0.0 0.00 0.00 0.00 97 1007.6
20260904080558 70 207 0.0 0.0 0.00 0.00 0.00 97 1007.5
20260904080054 71 207 0.0 0.0 0.00 0.00 0.00 97 1007.6
20260904075550 71 207 0.0 0.0 0.00 0.00 0.00 97 1007.5
20260904075049 71 207 1.0 1.0 0.00 0.00 0.00 97 1007.4
20260904074549 70 207 0.0 0.0 0.00 0.00 0.00 97 1007.5
20260904074044 70 207 0.0 0.0 0.00 0.00 0.00 96 1007.5
20260904073538 71 207 0.0 0.0 0.00 0.00 0.00 96 1007.6
20260904073035 71 207 0.0 0.0 0.00 0.00 0.00 96 1007.8
20260904072531 71 207 0.0 0.0 0.00 0.00 0.00 96 1007.6
20260904072026 71 207 0.0 0.0 0.00 0.00 0.00 96 1007.7
20260904071522 71 207 0.0 0.0 0.00 0.00 0.00 96 1007.6
20260904071016 72 194 0.0 0.0 0.00 0.00 0.00 95 1007.6
20260904070515 71 182 0.0 1.0 0.00 0.00 0.00 95 1007.7
20260904070010 72 206 0.0 0.0 0.00 0.00 0.00 95 1007.6
20260904065505 72 207 0.0 0.0 0.00 0.00 0.00 95 1007.6
20260904065001 72 207 0.0 0.0 0.00 0.00 0.00 94 1007.7
20260904064456 72 206 0.0 0.0 0.00 0.00 0.00 94 1007.7
20260904063951 73 206 0.0 0.0 0.00 0.00 0.00 94 1007.8
20260904063448 73 206 0.0 0.0 0.00 0.00 0.00 94 1007.9
20260904062943 73 207 0.0 0.0 0.00 0.00 0.00 94 1007.7
20260904062439 73 206 0.0 0.0 0.00 0.00 0.00 94 1007.8
20260904061934 73 207 0.0 0.0 0.00 0.00 0.00 94 1007.7
20260904061431 73 196 0.0 0.0 0.00 0.00 0.00 93 1007.8
20260904060926 73 204 0.0 0.0 0.00 0.00 0.00 93 1007.7
20260904060422 73 204 0.0 0.0 0.00 0.00 0.00 93 1007.8
20260904055917 74 204 0.0 0.0 0.00 0.00 0.00 92 1007.8
20260904055413 74 197 0.0 0.0 0.00 0.00 0.00 92 1007.8
20260904054909 74 196 0.0 0.0 0.00 0.00 0.00 92 1007.7
20260904054404 74 191 0.0 0.0 0.00 0.00 0.00 91 1007.5
20260904053900 74 215 0.0 0.0 0.00 0.00 0.00 91 1007.5
20260904053358 75 205 0.0 0.0 0.00 0.00 0.00 91 1007.5
20260904052855 75 206 0.0 1.0 0.00 0.00 0.00 91 1007.7
20260904052351 74 202 1.0 1.0 0.00 0.00 0.00 91 1007.5
20260904051847 74 202 0.0 0.0 0.00 0.00 0.00 91 1007.5
20260904051342 75 174 0.0 0.0 0.00 0.00 0.00 91 1007.6
20260904050837 75 224 0.0 0.0 0.00 0.00 0.00 91 1007.7
20260904050334 75 198 0.0 0.0 0.00 0.00 0.00 90 1007.4
20260904045834 75 198 0.0 0.0 0.00 0.02 0.02 90 1007.3
20260904045329 75 198 0.0 0.0 0.00 0.02 0.02 90 1007.5
20260904044829 75 198 0.0 0.0 0.00 0.02 0.02 89 1007.2
20260904044325 75 198 0.0 0.0 0.00 0.02 0.02 89 1007.5
20260904043821 76 198 0.0 0.0 0.00 0.02 0.02 88 1007.5
20260904043318 76 198 0.0 0.0 0.00 0.02 0.02 87 1007.4
20260904042812 77 198 0.0 0.0 0.00 0.02 0.02 87 1007.1
20260904042309 77 198 0.0 0.0 0.00 0.02 0.02 86 1007.3
20260904041808 77 198 0.0 1.0 0.00 0.02 0.02 86 1007.4
20260904041305 77 205 0.0 0.0 0.00 0.02 0.02 85 1007.4
20260904040800 77 218 0.0 0.0 0.00 0.02 0.02 85 1007.4
20260904040255 77 198 0.0 1.0 0.00 0.02 0.02 85 1007.3
20260904035752 78 192 1.0 1.0 0.00 0.02 0.02 85 1007.3
20260904035247 78 209 0.0 0.0 0.00 0.02 0.02 85 1007.2
20260904034745 78 204 1.0 1.0 0.00 0.02 0.02 85 1007.2
20260904034242 78 214 1.0 1.0 0.00 0.02 0.02 85 1007.2
20260904033737 78 201 0.0 0.0 0.00 0.02 0.02 84 1007.2
20260904033234 78 205 1.0 1.0 0.00 0.02 0.02 83 1007.2
20260904032730 78 195 1.0 1.0 0.00 0.02 0.02 83 1007.2
20260904032228 78 205 1.0 1.0 0.00 0.02 0.02 83 1007.2
20260904031723 78 194 1.0 1.0 0.00 0.02 0.02 83 1007.0
20260904031219 78 208 1.0 2.0 0.00 0.02 0.02 84 1007.3
20260904030715 78 190 1.0 1.0 0.00 0.02 0.02 84 1007.4
20260904030209 77 200 0.0 1.0 0.00 0.02 0.02 85 1007.2
20260904025706 77 184 1.0 1.0 0.00 0.02 0.02 85 1007.1
20260904025201 76 193 1.0 1.0 0.00 0.02 0.02 86 1007.1
20260904024656 76 206 0.0 0.0 0.00 0.02 0.02 86 1007.3
20260904024152 76 206 0.0 1.0 0.00 0.02 0.02 86 1007.3
20260904023648 76 202 0.0 0.0 0.00 0.02 0.02 86 1007.5
20260904023144 77 195 0.0 0.0 0.00 0.02 0.02 85 1007.4
20260904022643 76 193 0.0 1.0 0.00 0.02 0.02 86 1007.4
20260904022140 75 203 0.0 1.0 0.00 0.02 0.02 88 1007.4
20260904021636 75 202 0.0 0.0 0.00 0.02 0.02 88 1007.4
20260904021131 75 202 0.0 0.0 0.00 0.02 0.02 87 1007.2
20260904020627 76 202 0.0 0.0 0.00 0.02 0.02 87 1007.3
20260904020121 76 201 0.0 0.0 0.00 0.02 0.02 87 1007.3
20260904015615 76 202 0.0 0.0 0.00 0.02 0.02 86 1007.0
20260904015114 76 201 0.0 0.0 0.00 0.02 0.02 86 1007.1
20260904014608 77 201 0.0 0.0 0.00 0.02 0.02 86 1007.0
20260904014104 77 201 0.0 0.0 0.00 0.02 0.02 85 1007.2
20260904013600 77 201 0.0 0.0 0.00 0.02 0.02 84 1007.1
20260904013056 78 201 0.0 0.0 0.00 0.02 0.02 84 1007.0
20260904012556 78 201 0.0 1.0 0.00 0.02 0.02 83 1007.0
20260904012056 78 201 0.0 0.0 0.00 0.02 0.02 83 1006.9
20260904011555 78 201 0.0 0.0 0.00 0.02 0.02 82 1006.8
20260904011051 79 201 0.0 0.0 0.00 0.02 0.02 81 1007.0
20260904010546 80 201 0.0 0.0 0.00 0.02 0.02 80 1006.9
20260904010043 80 201 0.0 0.0 0.00 0.02 0.02 79 1006.7
20260904005543 80 201 0.0 0.0 0.00 0.02 0.02 78 1006.7
20260904005038 81 201 0.0 0.0 0.00 0.02 0.02 77 1006.6
20260904004534 82 201 0.0 0.0 0.00 0.02 0.02 75 1006.7
20260904004028 82 201 0.0 0.0 0.00 0.02 0.02 75 1006.7
20260904003524 83 201 0.0 0.0 0.00 0.02 0.02 73 1006.7
20260904003020 83 194 0.0 1.0 0.00 0.02 0.02 72 1006.7
20260904002516 84 194 0.0 0.0 0.00 0.02 0.02 71 1006.5
20260904002015 84 194 1.0 2.0 0.00 0.02 0.02 71 1006.6
20260904001511 84 202 1.0 1.0 0.00 0.02 0.02 70 1006.6
20260904001010 84 200 0.0 1.0 0.00 0.02 0.02 71 1006.6
20260904000510 84 200 0.0 0.0 0.00 0.02 0.02 70 1006.6
20260904000006 84 201 0.0 0.0 0.00 0.02 0.02 69 1006.7
20260903235500 84 203 1.0 2.0 0.00 0.02 0.02 68 1006.6
20260903234955 85 208 1.0 2.0 0.00 0.02 0.02 68 1006.8
20260903234451 85 212 1.0 1.0 0.00 0.02 0.02 67 1006.7
20260903233947 85 201 1.0 1.0 0.00 0.02 0.02 67 1006.6
20260903233443 85 206 2.0 2.0 0.00 0.02 0.02 67 1006.7
20260903232938 85 194 1.0 1.0 0.00 0.02 0.02 66 1006.4
20260903232433 86 183 2.0 3.0 0.00 0.02 0.02 66 1006.4
20260903231933 86 193 1.0 1.0 0.00 0.02 0.02 65 1006.3
20260903231428 86 202 3.0 5.0 0.00 0.02 0.02 65 1006.4
20260903230922 86 205 1.0 1.0 0.00 0.02 0.02 65 1005.9
20260903230418 86 204 0.0 0.0 0.00 0.02 0.02 65 1005.7
20260903225914 86 193 1.0 1.0 0.00 0.02 0.02 65 1005.7
20260903225410 86 226 1.0 2.0 0.00 0.02 0.02 65 1005.7
20260903224906 86 213 2.0 2.0 0.00 0.02 0.02 65 1005.7
20260903224401 86 193 1.0 1.0 0.00 0.02 0.02 66 1005.9
20260903223857 85 203 5.0 7.0 0.00 0.02 0.02 65 1005.6
20260903223356 85 198 2.0 2.0 0.00 0.02 0.02 67 1005.7
20260903222851 85 176 3.0 3.0 0.00 0.02 0.02 66 1005.9
20260903222351 85 216 2.0 2.0 0.00 0.02 0.02 67 1006.0
20260903221845 85 169 1.0 2.0 0.00 0.02 0.02 67 1006.0
20260903221344 85 191 2.0 3.0 0.00 0.02 0.02 66 1006.3
20260903220842 85 198 3.0 5.0 0.00 0.02 0.02 65 1006.2
20260903220337 85 217 1.0 2.0 0.00 0.02 0.02 65 1006.3
20260903215835 85 188 3.0 3.0 0.00 0.02 0.02 64 1006.3
20260903215332 85 192 2.0 3.0 0.00 0.02 0.02 65 1006.5
20260903214830 85 148 2.0 2.0 0.00 0.02 0.02 65 1006.7
20260903214326 86 195 1.0 2.0 0.00 0.02 0.02 65 1006.5
20260903213820 86 223 1.0 1.0 0.00 0.02 0.02 64 1006.5
20260903213315 86 200 2.0 3.0 0.00 0.02 0.02 65 1006.4
20260903212812 86 190 1.0 2.0 0.00 0.02 0.02 65 1006.5
20260903212308 86 221 5.0 7.0 0.00 0.02 0.02 64 1006.6
20260903211807 86 201 3.0 3.0 0.00 0.02 0.02 65 1006.4
20260903211303 86 207 3.0 5.0 0.00 0.02 0.02 65 1006.3
20260903210759 87 187 1.0 2.0 0.00 0.02 0.02 65 1006.2
20260903210254 86 214 2.0 2.0 0.00 0.02 0.02 65 1006.4
20260903205754 86 176 3.0 5.0 0.00 0.02 0.02 66 1006.5
20260903205254 86 213 4.0 5.0 0.00 0.02 0.02 67 1006.4
20260903204749 86 194 2.0 3.0 0.00 0.02 0.02 68 1006.4
20260903204245 86 217 3.0 3.0 0.00 0.02 0.02 68 1006.4
20260903203740 86 204 4.0 5.0 0.00 0.02 0.02 67 1006.4
20260903203236 86 201 1.0 2.0 0.00 0.02 0.02 70 1006.3
20260903202729 85 200 1.0 1.0 0.00 0.02 0.02 71 1006.5
20260903202226 84 195 2.0 2.0 0.00 0.02 0.02 72 1006.7
20260903201725 84 178 2.0 2.0 0.00 0.02 0.02 71 1006.7
20260903201221 84 209 5.0 7.0 0.00 0.02 0.02 70 1006.8
20260903200719 84 187 2.0 3.0 0.00 0.02 0.02 70 1006.8
20260903200215 84 211 4.0 5.0 0.00 0.02 0.02 69 1007.2
20260903195710 85 164 3.0 3.0 0.00 0.02 0.02 68 1007.1
20260903195206 85 204 2.0 2.0 0.00 0.02 0.02 68 1007.3
20260903194706 85 203 3.0 3.0 0.00 0.02 0.02 68 1007.1
20260903194202 84 205 3.0 5.0 0.00 0.02 0.02 68 1007.3
20260903193657 85 203 1.0 2.0 0.00 0.02 0.02 68 1007.2
20260903193152 85 191 3.0 3.0 0.00 0.02 0.02 67 1007.3
20260903192648 85 179 4.0 6.0 0.00 0.02 0.02 66 1007.2
20260903192148 85 189 3.0 5.0 0.00 0.02 0.02 66 1007.5
20260903191645 85 179 2.0 2.0 0.00 0.02 0.02 66 1007.5
20260903191144 84 174 2.0 2.0 0.00 0.02 0.02 67 1007.5
20260903190639 84 185 3.0 5.0 0.00 0.02 0.02 67 1007.5
20260903190133 84 217 1.0 1.0 0.00 0.02 0.02 67 1007.4
20260903185629 84 202 2.0 2.0 0.00 0.02 0.02 67 1007.3
20260903185124 84 194 2.0 3.0 0.00 0.02 0.02 66 1007.5
20260903184620 84 190 1.0 2.0 0.00 0.02 0.02 67 1007.8
20260903184115 83 220 1.0 2.0 0.00 0.02 0.02 67 1007.8
20260903183614 83 209 4.0 7.0 0.00 0.02 0.02 68 1007.8
20260903183109 83 176 6.0 7.0 0.00 0.02 0.02 67 1007.6
20260903182608 82 188 1.0 2.0 0.00 0.02 0.02 70 1007.5
20260903182105 82 202 1.0 2.0 0.00 0.02 0.02 70 1007.6
20260903181603 82 194 5.0 6.0 0.00 0.02 0.02 68 1007.8
20260903181057 81 189 3.0 3.0 0.00 0.02 0.02 70 1007.7
20260903180553 80 190 3.0 3.0 0.00 0.02 0.02 75 1007.8
20260903180047 79 208 0.0 0.0 0.00 0.02 0.02 78 1007.7
20260903175546 79 207 2.0 2.0 0.14 0.02 0.02 78 1007.9
20260903175046 81 188 1.0 1.0 0.14 0.02 0.02 74 1007.8
20260903174540 83 192 1.0 2.0 0.00 0.00 0.00 65 1008.0
20260903174036 84 185 3.0 5.0 0.00 0.00 0.00 63 1007.9
20260903173530 84 197 3.0 5.0 0.00 0.00 0.00 62 1008.1
20260903173026 85 208 3.0 3.0 0.00 0.00 0.00 61 1008.2
20260903172521 84 208 2.0 2.0 0.00 0.00 0.00 62 1008.2
20260903172017 84 182 1.0 2.0 0.00 0.00 0.00 61 1008.1
20260903171511 84 195 2.0 2.0 0.00 0.00 0.00 61 1007.9
20260903171006 85 186 1.0 1.0 0.00 0.00 0.00 62 1008.3
20260903170500 85 187 1.0 2.0 0.00 0.00 0.00 62 1008.5
20260903170000 84 196 1.0 2.0 0.00 0.00 0.00 61 1008.1
20260903165453 85 204 2.0 2.0 0.00 0.00 0.00 61 1008.3
20260903164948 86 190 3.0 5.0 0.00 0.00 0.00 60 1008.4
20260903164438 87 192 2.0 2.0 0.00 0.00 0.00 59 1008.5
20260903163937 87 167 1.0 2.0 0.00 0.00 0.00 59 1008.5
20260903163433 86 208 1.0 1.0 0.00 0.00 0.00 59 1008.2
20260903162929 85 199 3.0 3.0 0.00 0.00 0.00 60 1008.5
20260903162426 86 197 3.0 3.0 0.00 0.00 0.00 59 1008.5
20260903161921 86 215 2.0 3.0 0.00 0.00 0.00 61 1008.3
20260903161416 85 184 2.0 2.0 0.00 0.00 0.00 61 1008.2
20260903160913 84 199 1.0 1.0 0.00 0.00 0.00 61 1008.5
20260903160411 84 254 5.0 7.0 0.00 0.00 0.00 61 1008.6
20260903155910 84 192 2.0 2.0 0.00 0.00 0.00 64 1008.6
20260903155405 83 194 1.0 1.0 0.00 0.00 0.00 65 1008.5
20260903154900 82 186 3.0 3.0 0.00 0.00 0.00 69 1008.6
20260903154351 83 166 1.0 2.0 0.00 0.00 0.00 69 1008.7
20260903153851 82 200 1.0 1.0 0.00 0.00 0.00 68 1008.5
20260903153346 82 193 2.0 3.0 0.00 0.00 0.00 68 1008.5
20260903152843 82 195 1.0 1.0 0.00 0.00 0.00 68 1008.6
20260903152338 81 210 1.0 2.0 0.00 0.00 0.00 69 1008.4
20260903151833 81 193 1.0 2.0 0.00 0.00 0.00 72 1008.4
20260903151329 81 177 2.0 2.0 0.00 0.00 0.00 73 1008.6
20260903150828 80 208 0.0 0.0 0.00 0.00 0.00 74 1008.5
20260903150323 80 188 2.0 2.0 0.00 0.00 0.00 72 1008.5
20260903145818 80 195 0.0 1.0 0.00 0.00 0.00 76 1008.6
20260903145313 79 201 1.0 1.0 0.00 0.00 0.00 76 1008.4
20260903144813 79 200 0.0 1.0 0.00 0.00 0.00 78 1008.4